#timestamp,LO_Frequency,Hit,StdDev 
1598454015.1,286047005.0,N
1598454016.0,286047005.0,N
1598454035.8,286047006.0,N
1598454055.6,286047003.3,N
1598454075.5,286047005.4,N
1598454095.3,286047005.2,N
1598454115.2,286047005.6,N
1598454135.9,286047005.5,N
1598454155.7,286047003.7,N
1598454175.6,286047001.6,N
1598454195.4,286047002.3,N
1598454215.2,286047000.6,N
1598454235.1,286047000.0,N
1598454236.0,286047000.0,N
1598454255.8,286047000.5,N
1598454275.7,286047002.3,N
1598454295.5,286047002.3,N
1598454315.3,286047002.7,N
1598454335.2,286046999.9,N
1598454355.0,286047000.6,N
1598454355.9,286047000.6,N
1598454375.8,286047000.8,N
1598454395.6,286047002.7,N
1598454415.4,286047003.9,N
1598454435.3,286047003.1,N
1598454455.1,286047006.0,Y
1598454475.8,286047004.2,P
1598454495.7,286047001.5,N
1598454515.5,286047002.1,N
1598454535.4,286047002.4,N
1598454555.2,286047002.4,N
1598454575.0,286047003.8,Y
1598454575.9,286047003.8,P
1598454595.8,286047000.9,N
1598454615.6,286046998.2,N
1598454635.4,286046998.3,N
1598454655.3,286046996.9,N
1598454675.1,286046995.4,N
1598454695.9,286046995.3,N
1598454715.7,286046998.7,N
1598454735.5,286046998.6,N
1598454755.4,286046998.6,N
1598454775.2,286046998.8,N
1598454795.0,286047001.2,N
1598454795.9,286047001.2,N
1598454815.8,286046999.5,N
1598454835.6,286047001.9,N
1598454855.5,286047003.6,N
1598454875.3,286047001.4,N
1598454895.1,286047002.0,N
1598454915.9,286047002.8,N
1598454935.7,286047002.7,N
1598454955.6,286047000.3,N
1598454975.4,286047001.2,N
1598454995.2,286046999.2,N
1598455015.1,286046997.2,N
1598455016.0,286046997.2,N
1598455065.8,286046998.8,E
1598455075.8,286047001.2,N
1598455095.6,286046998.3,P
1598455115.4,286046999.2,N
1598455135.3,286046998.9,N
1598455155.1,286046999.4,N
1598455175.8,286046999.6,N
1598455195.7,286046999.3,N
1598455215.5,286046999.9,N
1598455235.4,286046998.8,N
1598455255.2,286046998.1,N
1598455275.0,286047000.0,N
1598455275.9,286047000.0,N
1598455295.8,286047001.6,N
1598455315.6,286047004.3,Y
1598455335.4,286047003.4,P
1598455355.3,286047005.4,N
1598455375.1,286047009.6,P
1598455395.9,286047008.6,N
1598455415.7,286047007.3,N
1598455435.5,286047005.5,N
1598455455.4,286047005.6,N
1598455475.2,286047005.5,N
1598455495.0,286047007.6,N
1598455495.9,286047007.6,N
1598455515.8,286047005.3,N
1598455535.6,286047005.5,N
1598455555.5,286047005.9,N
1598455575.3,286047004.4,N
1598455595.1,286047002.3,N
1598455615.9,286047000.8,N
1598455635.7,286047001.1,N
1598455655.5,286047001.1,N
1598455675.4,286047000.7,N
1598455695.2,286047002.7,N
1598455715.1,286046999.9,N
1598455716.0,286046999.9,N
1598455735.8,286047000.7,N
1598455755.6,286047001.1,N
1598455775.5,286046999.0,N
1598455795.3,286047000.9,N
1598455815.1,286046998.2,N
1598455835.9,286047000.8,N
1598455855.7,286046999.8,N
1598455875.6,286047000.1,N
1598455895.4,286047000.5,N
1598455915.2,286047002.5,N
1598455935.1,286047004.4,N
1598455936.0,286047004.4,N
1598455955.8,286047005.6,N
1598455975.6,286047013.7,Y
1598455995.5,286047009.3,P
1598456015.3,286047006.5,N
1598456035.2,286047006.2,N
1598456055.9,286047005.4,N
1598456075.7,286047006.3,N
1598456095.6,286047007.2,Y
1598456115.4,286047000.2,P
1598456135.2,286046999.7,N
1598456155.1,286047000.6,N
1598456156.0,286047000.6,N
1598456175.8,286046998.5,N
1598456195.7,286046996.6,N
1598456215.5,286046999.5,N
1598456235.3,286046994.9,N
1598456255.2,286046995.7,N
1598456275.0,286046996.7,N
1598456275.9,286046996.7,N
1598456295.8,286046997.3,N
1598456315.6,286046995.8,N
1598456335.4,286046993.3,N
1598456355.3,286046993.7,N
1598456375.1,286046993.9,N
1598456395.8,286046994.5,N
1598456415.7,286046991.9,N
1598456435.5,286046992.4,N
1598456455.4,286046992.3,N
1598456475.2,286046997.1,N
1598456495.0,286046997.7,N
1598456495.9,286046997.7,N
1598456515.8,286046995.1,N
1598456535.6,286046994.2,N
1598456555.5,286046993.9,N
1598456575.3,286046997.5,N
1598456595.1,286046996.3,N
1598456615.9,286046994.8,N
1598456635.7,286046991.8,N
1598456655.5,286046992.5,N
1598456675.4,286046990.5,Y
1598456695.2,286046996.2,P
1598456715.1,286046995.9,P
1598456716.0,286046995.9,P
1598456735.8,286046993.4,Y
1598456755.6,286046998.8,P
1598456775.5,286047000.8,N
1598456795.3,286047001.6,N
1598456815.1,286047002.2,N
1598456835.9,286047002.3,N
1598456855.7,286047002.8,N
1598456875.6,286047000.5,N
1598456895.4,286046999.2,N
1598456915.2,286046996.5,N
1598456935.1,286046996.5,N
1598456936.0,286046996.5,N
1598456955.8,286046999.5,N
1598456975.6,286047003.4,N
1598456995.5,286047004.4,N
1598457015.3,286047002.7,N
1598457035.2,286047000.4,N
1598457055.9,286046998.2,N
1598457075.7,286046998.8,N
1598457095.6,286046996.7,N
1598457115.4,286046997.6,N
1598457135.2,286046999.1,N
1598457155.1,286046999.6,N
1598457156.0,286046999.6,N
1598457175.8,286046999.0,N
1598457195.7,286046998.4,N
1598457215.5,286046999.6,N
1598457235.3,286046996.9,N
1598457255.2,286046997.6,N
1598457275.0,286046995.3,N
1598457275.9,286046995.3,N
1598457295.8,286046998.0,N
1598457315.6,286046995.0,N
1598457335.4,286046996.1,N
1598457355.3,286046993.3,N
1598457375.1,286046993.3,N
1598457395.8,286046994.1,N
1598457415.7,286046995.8,N
1598457435.5,286046997.2,N
1598457455.4,286046997.0,N
1598457475.2,286046997.1,N
1598457495.0,286046995.6,N
1598457495.9,286046995.6,N
1598457515.8,286046996.3,N
1598457535.6,286046996.3,N
1598457555.5,286046994.9,N
1598457575.3,286046995.2,N
1598457595.1,286046997.3,N
